STARLINK-3246 (49732 NORAD) Tracking and Keplerian Element Data

This shows tracking and keplerian element data for the satellite.

Feedback or suggestion? Click here.




ElementValue
Catalog49732
NameSTARLINK-3246
Epoch Orbit130
Epoch Day140.58334491
Epoch Year2022
RAAN275.06
Inclination53.2147
Eccentricity0.0002012
Argument of Perigee33.0764
Mean Anonmoly228.4269
Mean Motion15.08862679
Decay Rate-0.00034595
L11 49732U 21115J 22140.58334491 -.00034595 00000+0 -21646-2 0 9999
L22 49732 53.2147 275.0600 0002012 33.0764 228.4269 15.08862679 1306

Live tracking and technical data element details for STARLINK-3246 (NORAD 49732). STARLINK-3246 can be tracked NOW for your location showing map with azimuth and elevation plus other details from your city location.

Track the satellite on the map from your city or location and see movement details for azimuth, elevation, latitude, longitude, range, height, and movement on the map or in text.







IsCatalogInMostPopularTable: catalog: 49732, numindb: 22
Update: records affected: 1



GetName: 49732 STARLINK-3246

Hit Count: updated at: Sun, 22 May 2022 03:54:05 GMT